Wind_Speed
23 23 24 25 25 25 25 27 27 28 28 29 30 31 32 34 35 36 37 38 39 40 41 41 41 41 42 43 43 44 45 46 46 47 47 47 47 46 46 45 45 46 46
24 24 24 24 25 26 27 27 28 29 30 31 32 33 34 35 36 37 38 39 40 40 40 40 40 41 42 43 43 43 43 44 44 43 42 41 41 41 41 42 42 43 43
24 24 24 24 25 27 28 29 30 31 32 33 33 34 35 35 37 38 39 40 40 39 40 40 40 40 41 41 41 40 40 39 39 38 38 38 38 38 39 39 39 39 39
25 26 26 26 27 28 29 29 30 31 32 33 33 34 35 36 37 38 38 38 38 38 38 38 38 38 38 37 37 36 36 35 35 34 34 34 34 35 35 35 35 35 35
26 26 26 27 28 28 29 30 30 31 32 32 32 33 34 35 35 35 35 35 35 35 35 35 35 35 34 34 33 32 32 32 31 31 31 30 31 31 31 31 31 31 31
25 26 26 27 27 28 28 29 30 30 31 31 31 31 31 31 31 32 32 31 31 32 31 31 31 31 31 30 29 29 28 28 28 27 27 27 28 28 28 28 27 28 28
24 25 25 25 26 26 27 28 28 28 29 29 29 29 29 29 28 28 28 28 28 28 28 29 29 28 27 26 26 26 25 25 25 25 25 26 26 26 26 26 25 25 25
23 23 24 24 25 25 26 26 26 26 26 26 26 27 27 27 26 26 27 26 26 26 26 26 26 25 24 23 23 23 22 22 23 23 23 24 24 24 24 24 24 24 23
21 22 23 23 23 23 24 24 24 24 24 25 25 25 25 25 25 25 25 24 24 23 23 23 22 22 21 20 20 20 20 21 21 21 22 22 22 22 22 22 22 21 21
20 21 22 22 22 22 22 22 22 22 23 23 23 23 23 23 23 22 22 21 21 21 21 20 19 19 18 18 18 18 19 20 20 20 21 21 21 21 20 20 20 19 19
18 19 20 20 20 20 20 20 21 21 21 21 21 20 20 20 20 20 19 19 19 18 18 17 17 16 16 16 17 17 18 19 19 19 20 19 19 19 19 18 18 18 18
17 17 18 18 18 18 18 19 19 19 19 18 18 17 17 17 17 17 17 16 16 16 16 15 15 15 15 16 16 17 17 18 18 18 19 19 18 18 17 17 17 16 16
16 16 17 18 18 18 18 18 17 17 16 16 15 15 15 15 15 15 14 14 14 13 13 13 13 14 14 15 16 16 16 17 17 18 18 17 17 16 16 15 15 15 15
15 16 17 17 17 17 17 16 15 14 14 14 13 13 13 13 13 13 12 12 12 11 11 12 12 13 13 14 14 15 16 16 17 17 16 15 15 14 14 13 13 13 14
13 14 14 14 14 14 13 13 12 11 11 11 11 11 12 12 12 11 10 10 10 10 10 11 12 12 13 13 14 15 15 15 16 16 15 14 13 13 12 12 11 11 12
11 11 11 11 11 11 10 9 9 9 9 9 10 10 10 10 10 9 9 9 9 9 10 10 11 12 12 13 14 14 14 15 15 14 13 12 12 11 11 10 10 10 10
9 9 9 9 9 8 8 8 7 7 8 8 9 9 9 8 8 8 8 8 8 9 9 10 11 11 12 12 13 13 14 13 13 12 11 11 10 10 9 8 9 9 9
8 8 8 8 8 8 7 7 7 7 7 7 7 7 7 7 7 7 7 8 8 8 9 10 11 11 12 12 12 13 12 12 11 10 10 9 9 8 8 7 8 8 9
8 8 8 8 8 8 8 7 7 7 6 6 6 6 6 7 7 7 7 8 8 9 10 10 11 11 11 12 12 12 11 11 10 9 8 8 7 7 7 7 7 7 8
10 10 10 10 9 9 8 8 8 7 6 6 6 6 6 7 7 7 8 8 9 9 10 10 11 11 11 11 11 10 10 9 9 8 7 7 7 7 7 7 7 8 8
11 11 11 11 10 10 9 9 8 8 7 7 7 7 7 7 8 8 9 9 9 10 10 11 11 11 11 11 10 10 9 9 8 7 7 7 7 7 7 7 8 8 9
12 12 12 12 12 12 11 11 10 9 8 8 8 8 8 8 8 9 10 10 10 11 11 11 11 11 11 11 10 10 9 9 8 7 7 7 7 7 8 8 9 10 11
14 14 14 14 14 13 13 12 12 11 10 10 10 9 9 10 10 10 11 11 11 12 12 12 11 11 11 11 11 10 10 9 9 9 8 8 9 9 9 10 11 11 12
17 16 16 15 15 14 14 13 13 12 12 11 11 11 11 11 11 11 12 12 12 12 12 12 12 12 12 12 11 11 11 10 10 10 10 11 11 11 11 12 12 13 14
18 18 17 17 16 16 15 14 14 14 13 13 13 12 12 12 12 13 13 13 13 13 13 13 13 13 12 12 12 12 12 12 12 12 12 12 12 12 13 13 13 14 14
18 18 18 18 17 17 16 15 15 15 14 14 14 14 14 14 14 14 14 14 14 14 14 14 14 13 13 13 13 13 13 13 13 13 13 13 13 13 13 13 14 14 14
Wind_Direction
262 262 261 262 263 262 263 264 266 268 270 271 273 276 276 276 277 278 280 281 281 282 284 284 283 283 284 285 285 286 287 288 289 289 290 290 290 291 291 291 291 291 291
263 263 263 263 264 265 267 269 271 273 274 274 276 276 277 277 279 280 281 282 283 284 284 283 284 284 285 286 287 288 289 289 290 290 291 291 292 293 293 294 294 294 295
264 264 267 268 269 270 271 272 273 275 276 276 276 277 278 280 281 282 283 283 284 284 284 284 285 285 286 287 288 289 290 290 291 292 293 294 295 296 297 298 299 299 299
265 266 268 270 270 271 272 273 274 275 276 277 278 279 280 282 283 284 284 284 284 285 284 285 286 286 287 289 290 290 291 291 293 294 295 296 298 300 301 302 303 304 305
264 266 267 268 270 271 272 273 274 275 277 279 280 281 283 284 285 284 285 285 285 286 286 287 287 289 289 290 291 291 292 292 293 294 296 298 301 303 304 306 307 309 310
267 268 269 270 271 273 274 275 276 278 279 281 282 283 284 285 286 287 287 288 288 288 289 290 291 291 291 291 291 292 292 293 295 297 300 303 305 306 307 308 310 311 313
273 274 274 275 275 275 276 276 277 279 281 282 282 283 285 286 288 289 291 291 291 291 293 293 293 292 292 292 292 292 293 295 298 300 303 306 307 308 309 311 312 313 315
276 276 278 278 277 278 279 280 281 282 283 284 284 285 287 288 288 290 292 293 293 293 294 293 293 292 293 292 292 293 296 298 301 303 305 307 308 309 311 312 313 315 318
276 279 281 282 282 281 281 282 283 283 285 287 288 288 287 289 291 292 292 294 295 296 296 295 295 295 294 294 295 297 300 302 303 305 307 308 309 310 312 313 315 317 320
279 281 283 284 285 284 283 283 285 288 290 291 292 292 292 293 294 294 294 294 295 296 295 294 294 295 295 296 299 302 304 306 307 308 309 310 311 313 314 316 318 319 322
281 282 284 287 287 286 286 287 289 291 292 293 294 294 294 295 296 295 295 295 295 295 294 294 293 293 295 299 303 306 308 309 310 310 312 313 314 315 317 319 322 323 325
287 287 288 290 290 290 291 292 293 294 294 296 296 297 298 299 299 299 298 297 296 296 296 294 293 293 297 302 305 308 310 312 313 314 316 316 317 317 319 321 324 327 329
290 290 292 293 294 294 295 295 295 296 296 297 299 301 302 303 303 302 301 300 300 299 298 297 297 299 304 307 310 311 314 316 317 319 320 320 319 320 320 322 324 328 332
297 297 298 298 297 296 296 296 297 298 297 299 302 304 304 305 306 306 303 302 301 301 301 302 303 306 310 312 314 316 317 318 320 322 322 322 321 322 323 324 327 331 336
303 303 305 305 304 303 301 301 301 300 301 302 306 309 308 308 308 308 307 306 306 306 307 309 311 312 314 316 317 319 321 321 322 324 325 324 325 326 326 327 330 333 337
313 313 314 314 314 313 311 309 308 306 307 309 313 315 314 313 313 312 313 314 313 314 315 316 318 320 321 321 322 323 325 326 326 328 328 328 329 330 331 333 335 338 342
324 325 326 327 328 328 326 323 321 317 314 315 320 323 324 324 323 322 323 323 323 324 325 325 326 326 326 327 327 328 328 329 330 331 332 332 334 337 339 342 346 349 351
342 341 343 346 347 344 342 339 336 331 328 328 332 335 337 339 339 339 338 337 336 335 334 334 334 333 332 332 333 333 334 334 335 338 340 341 343 347 351 354 356 0 3
10 8 6 4 1 358 357 355 351 346 343 344 344 346 348 351 353 353 352 350 348 345 342 341 341 340 339 338 339 339 341 342 344 347 351 353 356 360 3 4 9 13 16
27 24 20 18 16 15 12 8 6 4 3 3 2 2 3 3 3 3 2 1 357 354 353 351 349 348 347 347 347 348 349 351 353 356 2 7 9 13 18 23 26 29 33
32 32 31 29 29 27 25 21 18 17 18 19 19 18 17 16 16 15 12 9 7 5 1 358 357 357 357 357 358 359 1 3 7 12 17 21 24 30 37 41 43 45 48
38 37 36 35 34 32 31 30 30 30 31 30 29 27 27 27 25 21 18 16 14 10 7 6 7 7 8 9 11 13 16 20 25 30 35 40 43 47 51 55 57 59 61
43 42 41 40 38 37 38 39 38 39 39 39 38 37 36 34 30 28 25 23 20 18 17 16 16 17 18 20 23 26 30 34 39 45 50 53 57 61 64 66 67 68 68
45 44 44 43 42 42 42 43 44 44 44 44 44 43 41 38 36 34 32 29 27 25 26 26 26 27 29 31 33 36 40 46 52 57 60 64 67 70 71 72 73 73 72
47 47 47 46 46 46 47 46 46 47 47 48 47 46 44 42 41 38 36 35 33 33 33 33 34 36 38 40 43 46 51 55 59 64 66 69 71 73 74 76 76 75 73
48 48 48 48 48 48 48 49 49 49 49 49 48 47 45 44 43 41 39 38 37 37 38 38 39 42 45 47 50 53 56 60 63 67 70 72 73 75 76 77 76 74 71
Height
5763 5764 5765 5766 5767 5769 5769 5770 5770 5771 5771 5771 5771 5771 5770 5770 5769 5768 5766 5764 5763 5761 5759 5757 5754 5752 5749 5746 5743 5740 5737 5734 5730 5727 5723 5719 5715 5711 5707 5703 5699 5695 5690
5757 5758 5758 5759 5760 5761 5761 5762 5763 5763 5763 5763 5762 5762 5761 5760 5759 5758 5756 5754 5752 5750 5748 5746 5743 5741 5738 5735 5732 5729 5725 5722 5719 5715 5711 5708 5704 5700 5696 5692 5688 5683 5678
5751 5752 5752 5752 5753 5753 5754 5754 5755 5755 5755 5754 5753 5753 5752 5750 5749 5747 5746 5743 5741 5739 5737 5735 5732 5730 5727 5724 5721 5718 5714 5711 5708 5705 5701 5698 5694 5690 5686 5682 5677 5672 5668
5744 5745 5745 5746 5746 5746 5746 5746 5746 5746 5746 5745 5744 5743 5742 5740 5739 5737 5735 5732 5730 5728 5726 5724 5721 5719 5716 5713 5710 5707 5705 5702 5699 5696 5692 5689 5686 5682 5677 5673 5668 5663 5659
5738 5738 5738 5738 5738 5738 5738 5738 5738 5737 5737 5736 5735 5734 5732 5731 5729 5727 5725 5722 5720 5718 5716 5713 5711 5709 5706 5703 5701 5698 5696 5693 5690 5687 5684 5681 5677 5673 5669 5665 5660 5655 5651
5730 5730 5730 5730 5730 5730 5730 5729 5729 5728 5728 5727 5725 5724 5723 5721 5719 5717 5715 5713 5711 5709 5707 5704 5702 5700 5697 5695 5692 5690 5688 5685 5683 5680 5677 5674 5670 5666 5662 5658 5653 5649 5645
5723 5722 5722 5722 5722 5722 5721 5721 5720 5719 5719 5718 5717 5716 5715 5713 5711 5709 5707 5705 5703 5700 5698 5696 5694 5692 5690 5687 5685 5683 5681 5678 5676 5673 5670 5666 5663 5660 5656 5652 5647 5643 5639
5715 5715 5715 5714 5714 5714 5713 5713 5712 5712 5711 5710 5709 5708 5706 5705 5703 5701 5699 5697 5695 5693 5691 5689 5687 5685 5683 5680 5679 5677 5674 5672 5669 5667 5664 5660 5657 5654 5650 5646 5642 5638 5634
5709 5708 5708 5707 5707 5707 5706 5706 5705 5704 5704 5703 5701 5700 5699 5697 5696 5694 5692 5690 5689 5687 5684 5682 5681 5679 5677 5675 5673 5671 5669 5666 5663 5661 5658 5655 5651 5648 5644 5641 5637 5633 5629
5703 5702 5702 5701 5701 5700 5700 5699 5698 5697 5696 5696 5694 5693 5692 5691 5689 5687 5686 5684 5682 5680 5679 5676 5675 5673 5671 5669 5668 5665 5663 5661 5658 5655 5652 5649 5646 5643 5640 5636 5633 5629 5625
5698 5697 5697 5696 5695 5694 5694 5693 5692 5691 5691 5690 5688 5687 5685 5684 5683 5681 5680 5678 5676 5674 5673 5671 5669 5668 5666 5665 5663 5660 5658 5656 5653 5650 5648 5645 5641 5638 5635 5632 5628 5625 5621
5694 5693 5692 5691 5690 5689 5688 5687 5687 5686 5685 5684 5682 5681 5680 5679 5677 5675 5674 5672 5671 5669 5668 5666 5665 5663 5662 5660 5658 5656 5654 5651 5649 5646 5643 5640 5637 5634 5631 5628 5625 5622 5618
5689 5688 5687 5686 5685 5684 5683 5682 5682 5681 5679 5678 5677 5676 5675 5674 5672 5671 5669 5668 5666 5665 5663 5662 5661 5659 5658 5656 5654 5652 5650 5647 5645 5642 5639 5636 5633 5630 5627 5625 5622 5619 5616
5685 5684 5683 5682 5681 5680 5678 5677 5676 5676 5675 5674 5673 5672 5671 5669 5668 5666 5665 5664 5662 5661 5660 5659 5657 5656 5654 5652 5650 5648 5646 5643 5641 5638 5635 5632 5630 5627 5625 5622 5620 5617 5614
5681 5680 5679 5678 5677 5675 5674 5673 5672 5672 5671 5670 5669 5668 5667 5666 5664 5663 5662 5660 5659 5658 5657 5656 5654 5653 5651 5649 5647 5645 5642 5640 5637 5635 5632 5629 5627 5624 5622 5620 5618 5615 5613
5679 5678 5676 5675 5674 5672 5671 5670 5669 5669 5668 5667 5666 5665 5664 5663 5661 5660 5659 5658 5656 5655 5654 5653 5651 5650 5648 5646 5644 5642 5639 5637 5634 5632 5629 5627 5624 5622 5620 5618 5616 5614 5611
5677 5676 5675 5673 5672 5670 5669 5668 5667 5667 5666 5665 5664 5663 5662 5660 5659 5658 5657 5656 5655 5654 5652 5651 5649 5647 5645 5643 5641 5639 5637 5634 5632 5629 5627 5625 5623 5621 5618 5617 5615 5613 5610
5676 5674 5673 5672 5670 5669 5668 5667 5666 5665 5664 5663 5662 5661 5660 5659 5658 5657 5656 5655 5653 5652 5651 5649 5647 5645 5643 5641 5639 5637 5634 5632 5630 5627 5625 5623 5621 5619 5617 5616 5614 5612 5610
5675 5674 5672 5671 5670 5668 5667 5666 5665 5664 5663 5662 5662 5661 5660 5658 5657 5656 5655 5654 5652 5651 5649 5648 5646 5644 5642 5639 5637 5635 5632 5630 5628 5626 5624 5622 5620 5619 5617 5615 5614 5612 5610
5676 5674 5673 5671 5670 5668 5667 5666 5665 5664 5663 5662 5661 5660 5659 5658 5657 5656 5655 5654 5652 5650 5649 5647 5645 5642 5640 5638 5636 5633 5631 5629 5627 5625 5623 5622 5620 5619 5617 5616 5614 5613 5611
5677 5676 5674 5672 5670 5669 5668 5666 5665 5664 5663 5663 5662 5661 5660 5659 5658 5656 5655 5654 5652 5650 5648 5646 5644 5642 5639 5637 5635 5633 5630 5628 5626 5625 5623 5622 5620 5619 5618 5616 5615 5614 5612
5679 5677 5676 5674 5672 5670 5669 5668 5666 5665 5664 5663 5663 5662 5660 5659 5658 5657 5656 5654 5652 5650 5648 5646 5644 5641 5639 5637 5635 5633 5630 5628 5627 5625 5624 5622 5621 5620 5619 5617 5616 5615 5614
5682 5680 5678 5676 5674 5673 5671 5669 5668 5667 5666 5665 5664 5663 5662 5661 5659 5658 5656 5655 5653 5651 5648 5646 5644 5642 5640 5637 5635 5633 5631 5630 5628 5626 5625 5624 5622 5621 5620 5619 5618 5617 5616
5685 5683 5681 5679 5677 5675 5674 5672 5670 5669 5668 5667 5666 5664 5663 5662 5661 5659 5658 5656 5654 5652 5650 5647 5645 5643 5641 5639 5637 5635 5633 5631 5630 5628 5627 5626 5625 5624 5623 5622 5621 5620 5619
5688 5686 5684 5682 5680 5679 5677 5675 5674 5672 5671 5669 5668 5667 5666 5664 5663 5661 5660 5658 5656 5654 5651 5649 5647 5645 5643 5641 5639 5637 5635 5634 5632 5631 5630 5629 5628 5627 5626 5626 5625 5624 5623
5692 5690 5688 5686 5684 5682 5680 5679 5677 5675 5674 5672 5671 5669 5668 5667 5665 5663 5662 5660 5658 5656 5654 5652 5650 5647 5646 5644 5642 5640 5639 5637 5636 5635 5634 5633 5632 5631 5630 5629 5628 5628 5626